Location: Biltmore Gardens
(41.6070°N, 83.4666°W)
Time: 15:12:25
(UTC+00:00)

Cosmos 2061 Rocket - Pass Details

Date: 14 July 2020
Orbit: 965 x 1013 km, 82.9° (Epoch: 12 August)

Event Time Altitude Azimuth Distance (km) Brightness Sun altitude
Exits shadow 06:56:52 39° 152° (SSE) 1,447 4.5 -24.3°
Maximum altitude 06:59:04 60° 92° (E) 1,134 4.3 -24.2°
Drops below altitude 10° 07:05:15 10° 15° (NNE) 2,752 7.4 -23.8°
Sets 07:07:47 0° 12° (NNE) 3,698 8.4 -23.6°
